Location: Augirein
(42.9320°N, 0.9181°E)
Time: 16:00:36
(UTC+00:00)

CZ-4C R/B - Pass Details

Date: 20 June 2021
Orbit: 464 x 632 km, 98.0° (Epoch: 04 August)

Event Time Altitude Azimuth Distance (km) Brightness Sun altitude
Exits shadow 02:20:51 - 144° (SE) 2,005 6.0 -15.9°
Reaches altitude 10° 02:21:48 10° 140° (SE) 1,619 5.6 -15.8°
Maximum altitude 02:25:00 37° 72° (ENE) 743 4.4 -15.5°
Drops below altitude 10° 02:28:14 10° 3° (N) 1,631 6.6 -15.2°
Sets 02:30:23 0° 355° (N) 2,521 7.5 -14.9°
